Location: Baia Mare
(47.6567°N, 23.5850°E)
Time: 20:46:28
(UTC+02:00)

ISS - Pass Details

Date: 02 February 2020
Orbit: 417 x 420 km, 51.6° (Epoch: 26 October)

Event Time Altitude Azimuth Distance (km) Brightness Sun altitude
Rises 18:47:09 0° 292° (WNW) 2,374 1.1 -13.6°
Reaches altitude 10° 18:49:17 10° 296° (WNW) 1,506 -0.1 -14.0°
Maximum altitude 18:52:37 58° 16° (NNE) 495 -3.6 -14.6°
Enters shadow 18:53:56 32° 82° (E) 744 -3.1 -14.8°
